Location: Contre
(49.7477°N, 2.0963°E)
Time: 23:58:17
(UTC+00:00)

Envisat - Pass Details

Date: 28 February 2024
Orbit: 762 x 764 km, 98.3° (Epoch: 12 April)

Event Time Altitude Azimuth Distance (km) Brightness Sun altitude
Rises 03:15:36 0° 16° (NNE) 3,243 6.8 -32.6°
Reaches altitude 10° 03:17:56 10° 18° (NNE) 2,312 6.0 -32.2°
Enters shadow 03:21:36 46° 37° (NE) 1,019 3.8 -31.7°
